When you browse on this site, cookies collect data to enhance your experience and personalize the content and advertising you see.
Visit our Privacy Policy to learn more. By continuing to use the site, you agree to this use of cookies and data.

Hourly Weather Starobeshevo

Today, 27 September, Sunday

Time Temperature Precipitation Wind Pressure Humidity
00:00 +21°C° 0 mm 8 mps 749 mmHg 39%
01:00 +21°C° 0 mm 8 mps 750 mmHg 41%
02:00 +20°C° 0 mm 8 mps 750 mmHg 43%
03:00 +18°C° 0 mm 7 mps 750 mmHg 45%
04:00 +17°C° 0 mm 7 mps 750 mmHg 47%
05:00 +16°C° 0 mm 8 mps 750 mmHg 49%
06:00 +16°C° 0 mm 8 mps 751 mmHg 51%
07:00 +16°C° 0 mm 8 mps 751 mmHg 50%
08:00 +17°C° 0 mm 8 mps 751 mmHg 49%
09:00 +18°C° 0 mm 9 mps 752 mmHg 47%
10:00 +19°C° 0 mm 9 mps 752 mmHg 44%
11:00 +22°C° 0 mm 9 mps 752 mmHg 40%
12:00 +24°C° 0 mm 9 mps 752 mmHg 37%
13:00 +26°C° 0 mm 9 mps 752 mmHg 35%
14:00 +27°C° 0 mm 9 mps 752 mmHg 33%
15:00 +28°C° 0 mm 8 mps 751 mmHg 32%
16:00 +28°C° 0 mm 8 mps 752 mmHg 33%
17:00 +27°C° 0 mm 7 mps 752 mmHg 34%
18:00 +26°C° 0 mm 6 mps 752 mmHg 35%
19:00 +24°C° 0.1 mm 7 mps 752 mmHg 38%
20:00 +23°C° 0.1 mm 7 mps 752 mmHg 41%
21:00 +22°C° 0.1 mm 8 mps 753 mmHg 44%
22:00 +21°C° 0.5 mm 7 mps 753 mmHg 48%
23:00 +21°C° 0.5 mm 7 mps 753 mmHg 52%

Tomorrow, 28 September, Monday

Time Temperature Precipitation Wind Pressure Humidity
00:00 +20°C° 0.5 mm 6 mps 753 mmHg 57%
01:00 +19°C° 0.4 mm 6 mps 754 mmHg 60%
02:00 +17°C° 0.4 mm 6 mps 754 mmHg 63%
03:00 +17°C° 0.4 mm 6 mps 754 mmHg 66%
04:00 +16°C° 0 mm 5 mps 754 mmHg 68%
05:00 +15°C° 0 mm 5 mps 755 mmHg 70%
06:00 +15°C° 0 mm 5 mps 755 mmHg 71%
07:00 +15°C° 0 mm 5 mps 755 mmHg 67%
08:00 +16°C° 0 mm 5 mps 755 mmHg 63%
09:00 +17°C° 0 mm 5 mps 755 mmHg 59%
10:00 +19°C° 0 mm 5 mps 755 mmHg 53%
11:00 +21°C° 0 mm 5 mps 756 mmHg 48%
12:00 +23°C° 0 mm 5 mps 756 mmHg 42%
13:00 +25°C° 0 mm 5 mps 755 mmHg 39%
14:00 +26°C° 0 mm 5 mps 755 mmHg 36%
15:00 +27°C° 0 mm 5 mps 755 mmHg 33%
16:00 +26°C° 0 mm 4 mps 755 mmHg 34%
17:00 +25°C° 0 mm 4 mps 755 mmHg 35%
18:00 +25°C° 0 mm 3 mps 755 mmHg 36%
19:00 +23°C° 0 mm 5 mps 755 mmHg 37%
20:00 +22°C° 0 mm 6 mps 755 mmHg 38%
21:00 +21°C° 0 mm 7 mps 755 mmHg 39%
22:00 +21°C° 0 mm 7 mps 755 mmHg 42%
23:00 +20°C° 0 mm 6 mps 755 mmHg 45%

Day after tomorrow, 29 September, Tuesday

Time Temperature Precipitation Wind Pressure Humidity
00:00 +19°C° 0 mm 6 mps 755 mmHg 47%
01:00 +19°C° 0 mm 6 mps 755 mmHg 50%
02:00 +17°C° 0 mm 6 mps 755 mmHg 52%
03:00 +16°C° 0 mm 6 mps 755 mmHg 55%
04:00 +15°C° 0 mm 6 mps 755 mmHg 57%
05:00 +14°C° 0 mm 7 mps 755 mmHg 59%
06:00 +14°C° 0 mm 7 mps 754 mmHg 62%
07:00 +14°C° 0 mm 7 mps 754 mmHg 62%
08:00 +15°C° 0 mm 7 mps 754 mmHg 62%
09:00 +15°C° 0 mm 7 mps 754 mmHg 63%
10:00 +17°C° 0 mm 7 mps 754 mmHg 56%
11:00 +18°C° 0 mm 8 mps 754 mmHg 50%
12:00 +21°C° 0 mm 8 mps 753 mmHg 43%
13:00 +22°C° 0 mm 8 mps 753 mmHg 40%
14:00 +23°C° 0 mm 8 mps 753 mmHg 36%
15:00 +24°C° 0 mm 8 mps 752 mmHg 33%
16:00 +23°C° 0 mm 7 mps 752 mmHg 33%
17:00 +23°C° 0 mm 7 mps 751 mmHg 34%
18:00 +22°C° 0 mm 7 mps 751 mmHg 34%
19:00 +22°C° 0 mm 7 mps 751 mmHg 34%
20:00 +22°C° 0 mm 7 mps 750 mmHg 34%
21:00 +21°C° 0 mm 8 mps 750 mmHg 34%
22:00 +21°C° 0 mm 8 mps 750 mmHg 37%
23:00 +20°C° 0 mm 8 mps 749 mmHg 39%

30 September, Wednesday

Time Temperature Precipitation Wind Pressure Humidity
00:00 +18°C° 0 mm 8 mps 749 mmHg 42%
01:00 +18°C° 0 mm 8 mps 749 mmHg 45%
02:00 +17°C° 0 mm 8 mps 749 mmHg 48%
03:00 +16°C° 0 mm 8 mps 749 mmHg 51%
04:00 +16°C° 0 mm 8 mps 748 mmHg 51%
05:00 +15°C° 0 mm 9 mps 748 mmHg 52%
06:00 +15°C° 0 mm 9 mps 748 mmHg 52%
07:00 +15°C° 0 mm 9 mps 748 mmHg 52%
08:00 +14°C° 0 mm 10 mps 748 mmHg 52%
09:00 +16°C° 0 mm 10 mps 747 mmHg 51%
10:00 +17°C° 0 mm 11 mps 747 mmHg 47%
11:00 +19°C° 0 mm 11 mps 747 mmHg 44%
12:00 +21°C° 0 mm 11 mps 747 mmHg 40%
13:00 +22°C° 0 mm 11 mps 746 mmHg 37%
14:00 +23°C° 0 mm 11 mps 746 mmHg 33%
15:00 +24°C° 0 mm 11 mps 746 mmHg 30%
16:00 +24°C° 0 mm 10 mps 745 mmHg 30%
17:00 +23°C° 0 mm 10 mps 745 mmHg 30%
18:00 +23°C° 0 mm 9 mps 745 mmHg 30%
19:00 +22°C° 0.2 mm 9 mps 745 mmHg 34%
20:00 +21°C° 0.2 mm 9 mps 746 mmHg 38%
21:00 +19°C° 0.2 mm 10 mps 746 mmHg 42%
22:00 +19°C° 0.1 mm 9 mps 746 mmHg 45%
23:00 +18°C° 0.1 mm 9 mps 746 mmHg 49%

1 October, Thursday

Time Temperature Precipitation Wind Pressure Humidity
00:00 +17°C° 0.1 mm 9 mps 746 mmHg 52%
01:00 +17°C° 0.1 mm 9 mps 747 mmHg 54%
02:00 +16°C° 0.1 mm 8 mps 747 mmHg 56%
03:00 +15°C° 0.1 mm 8 mps 747 mmHg 58%
04:00 +15°C° 0 mm 8 mps 747 mmHg 61%
05:00 +14°C° 0 mm 7 mps 747 mmHg 65%
06:00 +14°C° 0 mm 7 mps 748 mmHg 68%
07:00 +15°C° 0 mm 7 mps 748 mmHg 63%
08:00 +16°C° 0 mm 8 mps 748 mmHg 58%
09:00 +16°C° 0 mm 8 mps 748 mmHg 53%
10:00 +17°C° 0 mm 8 mps 748 mmHg 52%
11:00 +18°C° 0 mm 7 mps 748 mmHg 50%
12:00 +20°C° 0 mm 7 mps 748 mmHg 48%
13:00 +20°C° 0 mm 7 mps 748 mmHg 48%
14:00 +21°C° 0 mm 7 mps 748 mmHg 47%
15:00 +21°C° 0 mm 7 mps 748 mmHg 47%
16:00 +21°C° 0 mm 6 mps 748 mmHg 46%
17:00 +21°C° 0 mm 5 mps 748 mmHg 45%
18:00 +21°C° 0 mm 4 mps 748 mmHg 45%
19:00 +20°C° 0 mm 6 mps 748 mmHg 46%
20:00 +20°C° 0 mm 7 mps 748 mmHg 47%
21:00 +19°C° 0 mm 9 mps 748 mmHg 47%
22:00 +18°C° 0 mm 8 mps 748 mmHg 46%
23:00 +17°C° 0 mm 7 mps 748 mmHg 44%

2 October, Friday

Time Temperature Precipitation Wind Pressure Humidity
00:00 +17°C° 0 mm 7 mps 748 mmHg 42%
01:00 +17°C° 0 mm 7 mps 748 mmHg 45%
02:00 +16°C° 0 mm 7 mps 748 mmHg 47%
03:00 +16°C° 0 mm 7 mps 748 mmHg 49%
04:00 +15°C° 0 mm 7 mps 748 mmHg 50%
05:00 +15°C° 0 mm 7 mps 749 mmHg 51%
06:00 +15°C° 0 mm 7 mps 749 mmHg 52%
07:00 +15°C° 0 mm 7 mps 749 mmHg 52%
08:00 +15°C° 0 mm 7 mps 749 mmHg 51%
09:00 +16°C° 0 mm 8 mps 749 mmHg 51%
10:00 +17°C° 0 mm 8 mps 749 mmHg 47%
11:00 +20°C° 0 mm 8 mps 749 mmHg 43%
12:00 +21°C° 0 mm 7 mps 749 mmHg 40%
13:00 +22°C° 0 mm 7 mps 749 mmHg 39%
14:00 +23°C° 0 mm 7 mps 748 mmHg 38%
15:00 +24°C° 0 mm 7 mps 748 mmHg 37%
16:00 +23°C° 0 mm 6 mps 748 mmHg 39%
17:00 +22°C° 0 mm 5 mps 748 mmHg 42%
18:00 +22°C° 0 mm 4 mps 748 mmHg 45%
19:00 +20°C° 0.5 mm 4 mps 749 mmHg 55%
20:00 +19°C° 0.5 mm 5 mps 749 mmHg 66%
21:00 +17°C° 0.5 mm 5 mps 749 mmHg 76%
22:00 +17°C° 2.2 mm 5 mps 749 mmHg 73%
23:00 +17°C° 2.2 mm 5 mps 750 mmHg 69%
Show more